Flag for Canada Weather past 2 weeks in Fort Nelson, British Columbia, Canada

Now
45 °F

Passing clouds.


Feels Like: 43 °F
Forecast: 36 / 58 °F
Wind: 3 mph from West

Location: Fort Nelson

Current Time: Sep 4, 2015 at 12:51:33 AM

Latest Report: Sep 4, 2015 at 12:00 AM


Visibility: 15 mi

Pressure: 30.24 "Hg

Humidity: 87%

Dew point: 41 °F

Location of Fort NelsonLocation

Historic Weather in Fort Nelson — Graph

°F

Fort Nelson temperature yesterday

Maximum temperature yesterday: 52 °F (at 5:00 PM)
Minimum temperature yesterday: 39 °F (at 3:00 AM)
Average temperature yesterday: 44 °F

Past Weeks' High & Low Weather Summary

 TemperatureHumidityPressure
High70 °F (Aug 26, 4:00 PM)100% (Aug 22, 4:00 AM)30.25 "Hg (Aug 22, 4:00 AM)
Low32 °F (Sep 1, 6:00 AM)28% (Aug 24, 5:00 PM)29.05 "Hg (Aug 31, 12:00 AM)
Average52 °F74%29.80 "Hg
* Reported Aug 19 11:00 PM — Sep 3 11:00 PM, Fort Nelson, Weather by CustomWeather, © 2015

Note: Actual official high and low records may vary slightly from our data, if they occured in-between our weather recording intervals... More about our weather records

Advertising

Fort Nelson weather history for previous 24 hours

 ConditionsComfort  
Time TempWeatherWind HumidityBarometerVisibility
11:00 PM
Thu, Sep 3
45 °FPartly cloudy.3 mph87%30.24 "Hg15 mi
10:00 PM46 °FPartly cloudy.2 mph82%30.25 "Hg15 mi
9:00 PM46 °FBroken clouds.5 mph82%30.24 "Hg15 mi
8:00 PM46 °FBroken clouds.6 mph76%30.24 "Hg15 mi
7:00 PM50 °FBroken clouds.7 mph67%30.24 "Hg30 mi
6:00 PM52 °FBroken clouds.10 mph62%30.23 "Hg30 mi
5:00 PM52 °FPartly sunny.9 mph58%30.23 "Hg30 mi
4:00 PM50 °FPartly sunny.12 mph62%30.23 "Hg30 mi
3:00 PM48 °FPartly sunny.8 mph66%30.23 "Hg30 mi
2:00 PM48 °FPartly sunny.9 mph62%30.24 "Hg20 mi
1:00 PM46 °FMostly cloudy.13 mph71%30.24 "Hg20 mi
12:00 PM45 °FMostly cloudy.10 mph76%30.25 "Hg20 mi
11:00 AM43 °FMostly cloudy.9 mph76%30.25 "Hg20 mi
10:00 AM41 °FMostly cloudy.10 mph81%30.25 "Hg15 mi
9:00 AM41 °FMostly cloudy.7 mph81%30.24 "Hg20 mi
8:00 AM39 °FMostly cloudy.7 mph87%30.23 "Hg20 mi
7:00 AM39 °FOvercast.7 mph87%30.22 "Hg20 mi
6:00 AM39 °FMostly cloudy.10 mph81%30.21 "Hg15 mi
5:00 AM39 °FPartly cloudy.5 mph81%30.21 "Hg15 mi
4:00 AM39 °FPassing clouds.9 mph81%30.19 "Hg15 mi
3:00 AM39 °FPartly cloudy.7 mph87%30.17 "Hg15 mi
2:00 AM41 °FPassing clouds.6 mph81%30.17 "Hg15 mi
1:00 AM41 °FPartly cloudy.7 mph81%30.16 "Hg15 mi
12:00 AM41 °FPartly cloudy.7 mph81%30.14 "Hg15 mi
Weather by CustomWeather, © 2015

See weather overviewHow to use our weather pages